Regional Weather Roundup
Issued by NWS

Home | Current Version | Previous Version | Text Only | Print | Product List | Glossary On
Versions: 1 2 3 4 5 6 7 8 9 10 11 12 13 14 15 16 17 18 19 20 21 22 23 24 25 26 27 28 29 30 31 32 33 34 35 36 37 38 39 40 41 42 43 44 45 46 47 48 49 50
000
ASUS44 KLUB 011510
RWRTX
WEST TEXAS WEATHER ROUNDUP
NATIONAL WEATHER SERVICE LUBBOCK TX
900 AM CST SUN MAR 01 2015

NOTE: "FAIR" INDICATES FEW OR NO CLOUDS BELOW 12,000 FEET WITH NO
SIGNIFICANT WEATHER AND/OR OBSTRUCTIONS TO VISIBILITY.

TXZ004-006>008-010-012-014-016-OKZ002-011600-
TEXAS PANHANDLE/OKLAHOMA PANHANDLE

CITY           SKY/WX    TMP DP  RH WIND       PRES   REMARKS
AMARILLO       FOG       25  24  96 SE9       30.22R VSB 1/4 WCI  15
BORGER         CLOUDY    27  23  85 CALM      30.25R
CANADIAN       CLOUDY    28  25  86 CALM      30.28R
DALHART        CLOUDY    27  23  85 W3        30.19R
DUMAS          CLOUDY    27  26  94 CALM      30.20R FOG
GUYMON         CLOUDY    28  23  81 N6        30.25R HAZE    WCI  22
HEREFORD       CLOUDY    31  31  99 SW8       30.20R FOG     WCI  23
PAMPA          CLOUDY    26  24  91 S3        30.25R
PERRYTON         N/A     26  23  89 S3        30.26R
$$

TXZ026-029-035-045-048-011600-
SOUTHERN PANHANDLE/SOUTH PLAINS/ROLLING PLAINS

CITY           SKY/WX    TMP DP  RH WIND       PRES   REMARKS
CHILDRESS      CLOUDY    26  24  92 CALM      30.33R
SEMINOLE       CLOUDY    30  30 100 CALM      30.23R
LUBBOCK        CLOUDY    27  26  96 CALM      30.23R FOG
PLAINVIEW      CLOUDY    28  26  95 CALM      30.22R FOG
SNYDER         CLOUDY   N/A N/A N/A NE5       30.28R HAZE
$$

TXZ052-054-060>062-072-078-127-140-154-169-011600-
PERMIAN BASIN/CONCHO VALLEY/BIG COUNTRY/EDWARDS PLATEAU

CITY           SKY/WX    TMP DP  RH WIND       PRES   REMARKS
ABILENE        CLOUDY    30  28  92 N7        30.31R FOG     WCI  23
BIG SPRING     CLOUDY    32  30  93 NE6       30.28R WCI  26
BROWNWOOD      PTSUNNY   32  32 100 MISG      30.32R
JUNCTION       CLOUDY    34  34 100 NE8       30.26R FOG     WCI  27
MIDLAND        FOG       31  30  96 E8        30.23R VSB 1/2 WCI  23
ODESSA         FOG       31  29  92 E8        30.22R VSB 1/2 WCI  23
SAN ANGELO     CLOUDY    32  31  96 NE9       30.28R FOG     WCI  24
SONORA         CLOUDY    36  36 100 NE6       30.28R FOG     WCI  31
SWEETWATER     CLOUDY    29  29 100 CALM      30.31R VSB 1/2
WINK           CLOUDY    36  33  89 E5        30.21R FOG     WCI  32
$$

TXZ055-058-074-075-080-082-011600-
FAR WEST/SOUTHWEST MOUNTAINS/TRANS PECOS

CITY           SKY/WX    TMP DP  RH WIND       PRES   REMARKS
ALPINE         MOSUNNY   35  33  94 CALM      30.21S
DRYDEN           N/A     42  40  92 CALM      30.20R
EL PASO        PTSUNNY   47  30  51 S3        30.10R
FORT STOCKTON  CLOUDY    33  33 100 NW6       30.22R FOG     WCI  28
MARFA          MOSUNNY   48  36  61 CALM      30.18R
PECOS          CLOUDY    36  34  94 CALM      30.23R FOG
PRESIDIO       FAIR      41  34  76 CALM      30.16R
$$

TXZ014-016-019-021>030-083-011600
TEXAS TECH WEST TEXAS MESONET/TEXAS PANHANDLE/NORTHERN SOUTH PLAINS

CITY           SKY/WX    TMP DP  RH WIND       PRES   REMARKS
ABERNATHY 5ENE   N/A     25  25 100 CALM      30.25R
AMARILLO 9NNE    N/A     27  26  96 SE7       30.23R WCI  19
AMARILLO 7SSE    N/A     24  23  95 E1        30.23R
AMHERST 1NE      N/A     27  27  99 S6        30.21R WCI  21
BOOTLEG 11WNW    N/A     25  24  93 SW7       30.18R WCI  18
CANADIAN 6E      N/A     27  22  83 CALM      30.28R
CAPROCK CYN SP   N/A     26  26  99 CALM      30.30R
CHILDRESS 2NNE   N/A     26  25  97 CALM      30.33R
CLARENDON 2WSW   N/A     25  23  93 SW2       30.28R
CLAUDE 12SW      N/A     23  21  94 S1        30.23R
DIMMITT 2NE      N/A     28  27  98 SW2       30.20R
FLOYDADA 2NNE    N/A     24  24  99 W1        30.25R
FRIONA 2NE       N/A     28  27  98 SW6       30.19R WCI  21
GOODLETT 3W      N/A     28  26  95 CALM      30.34R
HART 3N          N/A     27  27  99 CALM      30.21R
HEREFORD 2NW     N/A     29  28  98 SW3       30.19R
MEMPHIS 1NE      N/A     27  26  98 W2        30.32R
MULESHOE 2SSW    N/A     29  29  99 S5        30.20R WCI  24
OLTON 6S         N/A     26  25  95 CALM      30.22R
PALO DURO SP     N/A     24  22  92 SE1       30.25R
PAMPA 2E         N/A     24  23  96 S3        30.24R
PLAINVIEW 1S     N/A     25  25  99 CALM      30.23R
SILVERTON 7ESE   N/A     25  24  93 SE1       30.27R
TULIA 2ENE       N/A     26  26  99 CALM      30.23R
TURKEY 2WSW      N/A     25  25  98 CALM      30.30R
UMBARGER 3NNE    N/A     28  27  96 CALM      30.21R
$$

TXZ033>036-039>041-045>048-011600
TEXAS TECH WEST TEXAS MESONET/SOUTH PLAINS

CITY           SKY/WX    TMP DP  RH WIND       PRES   REMARKS
AIKEN 3WSW       N/A     26  25  96 CALM      30.25R
ANDREWS 2NE      N/A     30  29  96 E3        30.23R
ANTON 6SSW       N/A     26  26  99 E2        30.23R
BROWNFIELD 2S    N/A     27  27  99 S2        30.23R
DENVR CTY 7WNW   N/A     28  28  99 SE3       30.20R
GAIL 2ESE        N/A     28  26  96 NE2       30.27R
LAMESA 2SE       N/A     27  27  99 E2        30.25R
LEVELLAND 4S     N/A     27  26  94 S2        30.22R
LUBBOCK 3WNW     N/A     28  27  97 CALM      30.24R
MORTON 1ENE      N/A     27  27  99 S6        30.20R WCI  21
ODONNELL 1N      N/A     26  25  97 E1        30.25R
PLAINS 3N        N/A     29  28  99 S3        30.20R
RALLS 1SE        N/A     25  24  96 CALM      30.26R
REESE CENTER     N/A     27  26  99 CALM      30.23R
SEAGRAVES 1SW    N/A     29  28  99 S5        30.22R WCI  23
SEMINOLE 2NNE    N/A     29  28  98 SE2       30.22R
SLATON 2NE       N/A     26  25  98 CALM      30.26R
SNYDER 3E        N/A     27  26  99 NE6       30.27R WCI  20
SUNDOWN 8SW      N/A     28  27  96 S2        30.21R
TAHOKA 3NNE      N/A     26  24  94 NE2       30.24R
WOLFFORTH 6SSW   N/A     28  27  99 CALM      30.23R
$$

TXZ031-032-036>038-042>044-011600-
TEXAS TECH WEST TEXAS MESONET/ROLLING PLAINS

CITY           SKY/WX    TMP DP  RH WIND       PRES   REMARKS
ASPERMONT 3NE    N/A     28  27  97 N3        30.33R
FLUVANNA 3WNW    N/A     26  25  96 NE2       30.26R
GRAHAM 5SSW      N/A     25  24  96 CALM      30.25R
GUTHRIE 10WSW    N/A     27  25  94 N3        30.31R
HASKELL 1NW      N/A     28  28  99 N7        30.32S WCI  21
JAYTON 1SSE      N/A     26  26  99 NE2       30.31R
KNOX CITY 3NW    N/A     29  27  92 N5        30.35R WCI  24
LK A HENRY 1NW   N/A    N/A N/A N/A NE3       30.29R
NORTHFIELD 1S    N/A     26  26  99 E1        30.32R
ODELL 4ENE       N/A     29  28  98 N1        30.37R
PADUCAH 10SW     N/A     26  26  98 NE1       30.31S
POST 1NE         N/A     26  25  94 CALM      30.27R
RRING SPRGS 3N   N/A     25  24  99 CALM      30.28R
SEYMOUR 3NW      N/A     29  28  95 N5        30.35R WCI  24
SPUR 1W          N/A     26  25  97 NE2       30.29R
WEINERT 2NNE     N/A     29  27  92 NE3       30.35R
WHITE RVR 6NE    N/A     26  24  93 CALM      30.27R
$$

TXZ052-054-060>062-072-078-127-140-154-169-011600-
TEXAS TECH WEST TEXAS MESONET/PERMIAN BASIN/
CONCHO VALLEY/BIG COUNTRY/EDWARDS PLATEAU

CITY           SKY/WX    TMP DP  RH WIND       PRES   REMARKS
COYANOSA 2N      N/A     36  35  99 SE6       30.24R WCI  31
JUNCTION 1SSW    N/A     34  33  99 NE6       30.27S WCI  28
MERTZON 3NNE     N/A     31  30  97 NE3       30.28R
SAN ANGELO 7NW   N/A     32  31  94 CALM      30.28S
STRLNG CT 4WSW   N/A     31  30  98 CALM      30.28R
ST LAWRNCE 5SW   N/A     31  33 100 NE3       30.24R
SWEETWATR 11SW   N/A     28  27  98 NE5       30.28R WCI  22
WALL 1E          N/A     31  30  95 NE6       30.29S WCI  25
$$

TXZ055-058-074-075-080-082-011600-
TEXAS TECH WEST TEXAS MESONET/FAR WEST/SOUTHWEST MOUNTAINS/TRANS PECOS

CITY           SKY/WX    TMP DP  RH WIND       PRES   REMARKS
$$


USA.gov is the U.S. government's official web portal to all federal, state and local government web resources and services.